Regional Weather Roundup
Issued by NWS

Home | Current Version | Previous Version | Text Only | Print | Product List | Glossary On
Versions: 1 2 3 4 5 6 7 8 9 10 11 12 13 14 15 16 17 18 19 20 21 22 23 24 25 26 27 28 29 30 31 32 33 34 35 36 37 38 39 40 41 42 43 44 45 46 47 48 49 50
000
ASUS44 KLIX 240810
RWRLA
LOUISIANA WEATHER ROUNDUP
NATIONAL WEATHER SERVICE NEW ORLEANS LA
300 AM CDT THU JUL 24 2014

NOTE: "FAIR" INDICATES FEW OR NO CLOUDS BELOW 12,000 FEET WITH NO
      SIGNIFICANT WEATHER AND/OR OBSTRUCTIONS TO VISIBILITY.
      SKY/WX - SKY CONDITION AND SIGNIFICANT WEATHER.
      TMP - AIR TEMPERATURE.    DP   - DEWPOINT TEMPERATURE.
      RH  - RELATIVE HUMIDITY.  PRES - PRESSURE.
      HX  - HEAT INDEX.         WCI  - WIND CHILL INDEX.

*  THESE STATIONS ARE NOT NWS OR FAA STATIONS AND ARE NOT UNDER
   NWS QUALITY CONTROL.

LAZ040-048-061>063-065-066-069-240900-
SOUTHEAST LOUISIANA

CITY           SKY/WX    TMP DP  RH WIND       PRES   REMARKS
N.O. AUDUBON   NOT AVBL
N.O. INTL ARPT PTCLDY    76  72  87 SE3       29.96F
N.O. LAKEFRONT CLEAR     77  73  87 SE3       29.97F
N.O. DOWNTOWN* FAIR      79  70  73 S5        29.96F
SLIDELL        CLEAR     71  68  90 N5        29.96F
BATON ROUGE    PTCLDY    75  72  90 MISG      29.95F
BOOTHVILLE       N/A     79  74  84 S6        29.97F
BELLE CHASSE   CLEAR     74  71  91 CALM      29.95F
BOGALUSA*      FAIR      73  70  89 CALM      29.98F
GALLIANO*      NOT AVBL
NEW ROADS*     FAIR      75  74  97 CALM      29.94F FOG
GONZALES*      FAIR      73  73 100 CALM      29.95S
HAMMOND*       CLEAR     73  70  88 CALM      29.97F
HOUMA*         CLEAR     72  69  90 CALM      29.96F FOG
PORT FOURCHON* MOSUNNY   81  73  78 S6        29.97F

$$

LAZ041-044-053-054-240900-
SOUTHWEST LOUISIANA

CITY           SKY/WX    TMP DP  RH WIND       PRES   REMARKS
LAKE CHARLES   CLOUDY    74  72  93 CALM      29.95F
LAFAYETTE      PTCLDY    77  73  87 CALM      29.95S
PATTERSON      CLEAR     73  73 100 S5        29.99F
SALT POINT       N/A     78  75  90 CALM      29.95F
NEW IBERIA     PTCLDY    76  73  91 CALM      29.95F
CHENAULT AIRPK CLOUDY    74  71  90 SE3       29.95F

$$

LAZ027-028-240900-
CENTRAL LOUISIANA

CITY           SKY/WX    TMP DP  RH WIND       PRES   REMARKS
FORT POLK      MOCLDY    72  70  93 CALM      29.96S
ALEXANDRIA INT PTCLDY    73  70  90 SE5       29.92F
ALEXANDRIA     PTCLDY    72  69  90 CALM      29.94F FOG

$$

LAZ001-002-240900-
NORTHWEST LOUISIANA

CITY           SKY/WX    TMP DP  RH WIND       PRES   REMARKS
SHREVEPORT     CLOUDY    72  70  94 CALM      29.99R
BARKSDALE AFB  MOCLDY    70  70 100 NE1       29.99R FOG
DTN SHREVEPORT NOT AVBL

$$

LAZ014-016-240900-
NORTHEAST LOUISIANA

CITY           SKY/WX    TMP DP  RH WIND       PRES   REMARKS
MONROE         CLEAR     70  67  90 CALM      29.98S
TALLULAH       CLEAR     74  71  91 E5        29.96F

$$



USA.gov is the U.S. government's official web portal to all federal, state and local government web resources and services.